This is the latest recevied weather packets stored in our database for station/object DG8SF-13. If no packets are shown the sender has not sent any weather packets the latest 10 day(s).
| Time | Temp. | Humidity | Pressure | Rain* | Wind** | Luminosity | Snow |
|---|---|---|---|---|---|---|---|
| 1788162302 | 20.56° C | 74% | 1016.6 hPa | 0 mm | - | - | - |
| 1788161989 | 20° C | 77% | 1016.6 hPa | 0 mm | - | - | - |
| 1788161678 | 20° C | 78% | 1016.6 hPa | 0 mm | - | - | - |
| 1788161365 | 20° C | 79% | 1016.6 hPa | 0 mm | - | - | - |
| 1788161054 | 19.44° C | 81% | 1016.5 hPa | 0 mm | - | - | - |
| 1788160741 | 20° C | 81% | 1016.5 hPa | 0 mm | - | - | - |
| 1788160429 | 19.44° C | 82% | 1016.5 hPa | 0 mm | - | - | - |
| 1788160115 | 19.44° C | 86% | 1016.5 hPa | 0 mm | - | - | - |
| 1788159806 | 18.33° C | 84% | 1016.4 hPa | 0 mm | - | - | - |
| 1788159492 | 18.89° C | 84% | 1016.5 hPa | 0 mm | - | - | - |
| 1788159182 | 18.33° C | 85% | 1016.5 hPa | 0 mm | - | - | - |
| 1788158869 | 18.89° C | 85% | 1016.5 hPa | 0 mm | - | - | - |
| 1788158557 | 17.78° C | 87% | 1016.4 hPa | 0 mm | - | - | - |
| 1788158233 | 17.78° C | 88% | 1016.4 hPa | 0 mm | - | - | - |
| 1788157910 | 17.22° C | 89% | 1016.4 hPa | 0 mm | - | - | - |
| 1788157596 | 16.67° C | 91% | 1016.4 hPa | 0 mm | - | - | - |
| 1788157285 | 16.11° C | 93% | 1016.5 hPa | 0 mm | - | - | - |
| 1788156972 | 16.11° C | 93% | 1016.5 hPa | 0 mm | - | - | - |
| 1788156661 | 16.11° C | 93% | 1016.5 hPa | 0 mm | - | - | - |
| 1788156349 | 16.11° C | 93% | 1016.5 hPa | 0 mm | - | - | - |
| 1788156038 | 16.11° C | 94% | 1016.6 hPa | 0 mm | - | - | - |
| 1788155725 | 15.56° C | 94% | 1016.6 hPa | 0 mm | - | - | - |
| 1788155402 | 15.56° C | 95% | 1016.6 hPa | 0 mm | - | - | - |
| 1788155089 | 15.56° C | 95% | 1016.5 hPa | 0 mm | - | - | - |
| 1788154779 | 15.56° C | 96% | 1016.4 hPa | 0 mm | - | - | - |
* Rain latest hour (hover to see other rain measurements)
** Current wind speed in m/s (hover to see current wind gust speed)